Flag for Syria Weather past 2 weeks in Damascus, Syria

Now
37 °F

Clear.


Feels Like: 37 °F
Forecast: 30 / 49 °F
Wind: No wind

Location: Damascus Int. Airport

Current Time: Jan 29, 2015 at 6:42:36 AM

Latest Report: Jan 29, 2015 at 6:00 AM


Visibility: 10 mi

Pressure: 29.98 "Hg

Humidity: 81%

Dew point: 32 °F

Location of DamascusLocation

Historic Weather in Damascus — Graph

°F

Damascus temperature yesterday

Maximum temperature yesterday: 64 °F (at 1:00 PM)
Minimum temperature yesterday: 39 °F (at 5:00 AM)
Average temperature yesterday: 51 °F

Past Weeks' High & Low Weather Summary

 TemperatureHumidityPressure
High73 °F (Jan 19, 12:00 AM)100% (Jan 15, 6:00 AM)30.33 "Hg (Jan 15, 6:00 AM)
Low30 °F (Jan 18, 4:00 AM)26% (Jan 28, 1:00 PM)29.86 "Hg (Jan 28, 12:00 PM)
Average46 °F74%30.13 "Hg
* Reported Jan 14 5:00 AM — Jan 29 5:00 AM, Damascus, Weather by CustomWeather, © 2014

Note: Actual official high and low records may vary slightly from our data, if they occured in-between our weather recording intervals... More about our weather records

Advertising

Damascus weather history for previous 24 hours

 ConditionsComfort  
Time TempWeatherWind HumidityBarometerVisibility
5:00 AM
Jan 29
39 °FClear.No wind81%29.95 "Hg10 mi
4:00 AM41 °FClear.No wind76%29.95 "Hg10 mi
3:00 AM41 °FClear.No wind76%29.95 "Hg10 mi
2:00 AM43 °FClear.No wind71%29.98 "Hg10 mi
1:00 AM39 °FClear.No wind65%29.95 "Hg10 mi
12:00 AM45 °FClear.No wind49%29.95 "Hg10 mi
11:00 PM
Jan 28
43 °FClear.9 mph53%29.95 "Hg10 mi
10:00 PM46 °FClear.12 mph46%29.95 "Hg10 mi
9:00 PM48 °FClear.9 mph43%29.98 "Hg10 mi
8:00 PM46 °FClear.7 mph46%29.98 "Hg10 mi
7:00 PM50 °FClear.10 mph47%29.95 "Hg10 mi
6:00 PM54 °FPassing clouds.14 mph47%29.92 "HgN/A
5:00 PM55 °FPassing clouds.12 mph38%29.89 "HgN/A
4:00 PM59 °FPassing clouds.21 mph31%29.89 "HgN/A
3:00 PM61 °FScattered clouds.21 mph29%29.86 "HgN/A
2:00 PM64 °FScattered clouds.18 mph30%29.86 "HgN/A
1:00 PM64 °FPassing clouds.9 mph26%29.86 "HgN/A
12:00 PM63 °FSunny.9 mph30%29.86 "Hg10 mi
11:00 AM61 °FSunny.3 mph39%29.89 "Hg10 mi
10:00 AM55 °FSunny.No wind47%29.89 "Hg10 mi
9:00 AM50 °FPassing clouds.No wind62%29.92 "HgN/A
8:00 AM45 °FScattered clouds.2 mph76%29.92 "HgN/A
7:00 AM39 °FScattered clouds.2 mph81%29.89 "HgN/A
6:00 AM41 °FClear.No wind76%29.89 "Hg10 mi
Weather by CustomWeather, © 2014

See weather overviewHow to use our weather pages